Hourly Data Report for June 14, 2006

TORONTO CITY
ONTARIO

43°40'00.000" N
79°24'00.000" W
112.50 m
6158355
71508
XTO

Download Data

Hourly Data (June 2006)
Hourly Data Report for June 14, 2006
TIME
LST
Temp Definition
°C
Dew Point Definition
°C
Rel Hum Definition
%
Precip. Amount Definition
mm

Wind Dir Definition
10's deg

Wind Spd Definition
km/h
Visibility Definition
km
Stn Press Definition
kPa
Hmdx Definition


Wind Chill Definition


Weather Definition


00:00 18.3 8.0 51   LegendMM LegendMM   100.39     LegendNANA
01:00 18.0 6.6 47   LegendMM LegendMM   100.38     LegendNANA
02:00 17.3 6.5 49   LegendMM LegendMM   100.35     LegendNANA
03:00 16.6 7.4 55   LegendMM LegendMM   100.31     LegendNANA
04:00 15.6 8.0 61   LegendMM LegendMM   100.32     LegendNANA
05:00 14.8 8.7 67   LegendMM LegendMM   100.34     LegendNANA
06:00 15.2 9.5 69   LegendMM LegendMM   100.37     LegendNANA
07:00 16.0 10.4 69   LegendMM LegendMM   100.40     LegendNANA
08:00 18.0 11.6 66   LegendMM LegendMM   100.40     LegendNANA
09:00 19.2 12.4 65   LegendMM LegendMM   100.40     LegendNANA
10:00 21.5 12.2 55   LegendMM LegendMM   100.36     LegendNANA
11:00 20.2 11.9 59   LegendMM LegendMM   100.36     LegendNANA
12:00 21.3 11.9 55   LegendMM LegendMM   100.33     LegendNANA
13:00 20.1 11.1 56   LegendMM LegendMM   100.31     LegendNANA
14:00 20.1 11.3 57   LegendMM LegendMM   100.29     LegendNANA
15:00 20.8 13.4 63   LegendMM LegendMM   100.26     LegendNANA
16:00 21.8 12.0 54   LegendMM LegendMM   100.21     LegendNANA
17:00 22.6 11.2 48   LegendMM LegendMM   100.18     LegendNANA
18:00 21.8 10.5 49   LegendMM LegendMM   100.17     LegendNANA
19:00 20.6 10.3 52   LegendMM LegendMM   100.15     LegendNANA
20:00 19.6 12.8 65   LegendMM LegendMM   100.17     LegendNANA
21:00 19.6 9.0 50   LegendMM LegendMM   100.23     LegendNANA
22:00 18.8 8.7 52   LegendMM LegendMM   100.24     LegendNANA
23:00 17.6 8.5 55   LegendMM LegendMM   100.24     LegendNANA

Notes on Data Quality.

Legend

  • E = Estimated
  • M = Missing
  • NA = Not Available*
  • [empty] = Indicates an unobserved value
Date modified: